Time,TemperatureF,DewpointF,PressureIn,WindDirection,WindDirectionDegrees,WindSpeedMPH,WindSpeedGustMPH,Humidity,HourlyPrecipIn,Conditions,Clouds,dailyrainin,SoftwareType,DateUTC
2013-12-28 00:01:00,29.7,20.8,30.27,SW,226,0.0,2.0,69,0.00,,---,0.00,VWS V14.01,2013-12-28 05:01:00,
2013-12-28 00:03:00,29.7,20.8,30.27,SW,226,0.0,0.0,69,0.00,,---,0.00,VWS V14.01,2013-12-28 05:03:00,
2013-12-28 00:04:00,29.7,20.8,30.27,SW,226,0.0,0.0,69,0.00,,---,0.00,VWS V14.01,2013-12-28 05:04:00,
2013-12-28 00:05:00,29.7,20.8,30.27,SW,226,1.0,2.0,69,0.00,,---,0.00,VWS V14.01,2013-12-28 05:05:00,
2013-12-28 00:09:00,29.7,20.8,30.27,SW,226,0.0,2.0,69,0.00,,---,0.00,VWS V14.01,2013-12-28 05:09:00,
2013-12-28 00:14:00,29.5,20.6,30.26,ESE,119,0.0,0.0,69,0.00,,---,0.00,VWS V14.01,2013-12-28 05:14:00,
2013-12-28 00:19:00,29.5,20.6,30.27,ESE,119,1.0,2.0,69,0.00,,---,0.00,VWS V14.01,2013-12-28 05:19:00,
2013-12-28 00:24:00,29.5,20.6,30.27,SSE,151,0.0,2.0,69,0.00,,---,0.00,VWS V14.01,2013-12-28 05:24:00,
2013-12-28 00:29:00,29.5,20.6,30.26,SSE,162,0.0,2.0,69,0.00,,---,0.00,VWS V14.01,2013-12-28 05:29:00,
2013-12-28 00:34:00,29.5,20.6,30.26,SSE,152,1.0,3.0,69,0.00,,---,0.00,VWS V14.01,2013-12-28 05:34:00,
2013-12-28 00:39:00,29.7,20.8,30.26,SSE,152,0.0,1.0,69,0.00,,---,0.00,VWS V14.01,2013-12-28 05:39:00,
2013-12-28 00:44:00,29.5,20.9,30.26,SSE,161,0.0,2.0,70,0.00,,---,0.00,VWS V14.01,2013-12-28 05:44:00,
2013-12-28 00:49:00,29.5,20.9,30.26,SSE,161,0.0,0.0,70,0.00,,---,0.00,VWS V14.01,2013-12-28 05:49:00,
2013-12-28 00:54:00,29.4,20.8,30.26,SSE,161,0.0,1.0,70,0.00,,---,0.00,VWS V14.01,2013-12-28 05:54:00,
2013-12-28 00:59:00,29.4,20.8,30.26,SSE,161,2.0,2.0,70,0.00,,---,0.00,VWS V14.01,2013-12-28 05:59:00,
2013-12-28 01:04:00,29.4,20.8,30.25,SSE,161,0.0,1.0,70,0.00,,---,0.00,VWS V14.01,2013-12-28 06:04:00,
2013-12-28 01:10:00,29.5,20.9,30.25,SSE,161,0.0,1.0,70,0.00,,---,0.00,VWS V14.01,2013-12-28 06:10:00,
2013-12-28 01:16:00,29.7,21.1,30.25,SSE,161,0.0,0.0,70,0.00,,---,0.00,VWS V14.01,2013-12-28 06:16:00,
2013-12-28 01:22:00,30.1,21.2,30.25,SW,228,0.0,2.0,69,0.00,,---,0.00,VWS V14.01,2013-12-28 06:22:00,
2013-12-28 01:27:00,30.3,21.4,30.25,SW,228,0.0,0.0,69,0.00,,---,0.00,VWS V14.01,2013-12-28 06:27:00,
2013-12-28 01:32:00,30.4,21.5,30.25,SW,223,0.0,1.0,69,0.00,,---,0.00,VWS V14.01,2013-12-28 06:32:00,
2013-12-28 01:38:00,30.4,21.5,30.25,South,190,1.0,2.0,69,0.00,,---,0.00,VWS V14.01,2013-12-28 06:38:00,
2013-12-28 01:43:00,30.6,21.3,30.25,South,190,1.0,2.0,68,0.00,,---,0.00,VWS V14.01,2013-12-28 06:43:00,
2013-12-28 01:48:00,30.4,21.5,30.25,South,190,0.0,0.0,69,0.00,,---,0.00,VWS V14.01,2013-12-28 06:48:00,
2013-12-28 01:53:00,30.4,21.5,30.25,South,173,0.0,1.0,69,0.00,,---,0.00,VWS V14.01,2013-12-28 06:53:00,
2013-12-28 01:58:00,30.3,21.4,30.25,SSE,155,0.0,1.0,69,0.00,,---,0.00,VWS V14.01,2013-12-28 06:58:00,
2013-12-28 02:04:00,30.1,21.2,30.25,SSE,155,0.0,1.0,69,0.00,,---,0.00,VWS V14.01,2013-12-28 07:04:00,
2013-12-28 02:09:00,30.1,21.2,30.25,SSE,167,0.0,0.0,69,0.00,,---,0.00,VWS V14.01,2013-12-28 07:09:00,
2013-12-28 02:15:00,30.1,21.5,30.25,SSE,167,0.0,2.0,70,0.00,,---,0.00,VWS V14.01,2013-12-28 07:15:00,
2013-12-28 02:20:00,30.3,21.4,30.24,SSE,150,2.0,2.0,69,0.00,,---,0.00,VWS V14.01,2013-12-28 07:20:00,
2013-12-28 02:25:00,30.3,21.4,30.24,SSE,162,0.0,3.0,69,0.00,,---,0.00,VWS V14.01,2013-12-28 07:25:00,
2013-12-28 02:30:00,30.4,21.5,30.24,SSE,162,0.0,1.0,69,0.00,,---,0.00,VWS V14.01,2013-12-28 07:30:00,
2013-12-28 02:36:00,30.3,21.7,30.25,SSE,162,2.0,3.0,70,0.00,,---,0.00,VWS V14.01,2013-12-28 07:36:00,
2013-12-28 02:41:00,30.1,21.5,30.25,SSW,192,3.0,3.0,70,0.00,,---,0.00,VWS V14.01,2013-12-28 07:41:00,
2013-12-28 02:46:00,30.0,21.4,30.25,SSE,155,0.0,2.0,70,0.00,,---,0.00,VWS V14.01,2013-12-28 07:46:00,
2013-12-28 02:51:00,29.8,21.6,30.24,SSE,161,0.0,2.0,71,0.00,,---,0.00,VWS V14.01,2013-12-28 07:51:00,
2013-12-28 02:56:00,29.7,21.5,30.24,SSE,153,0.0,0.0,71,0.00,,---,0.00,VWS V14.01,2013-12-28 07:56:00,
2013-12-28 03:01:00,29.5,21.3,30.24,SSE,150,2.0,2.0,71,0.00,,---,0.00,VWS V14.01,2013-12-28 08:01:00,
2013-12-28 03:07:00,29.4,21.5,30.24,SSE,163,3.0,3.0,72,0.00,,---,0.00,VWS V14.01,2013-12-28 08:07:00,
2013-12-28 03:12:00,29.3,21.4,30.24,SSE,163,0.0,3.0,72,0.00,,---,0.00,VWS V14.01,2013-12-28 08:12:00,
2013-12-28 03:17:00,29.3,21.4,30.24,SSE,150,0.0,3.0,72,0.00,,---,0.00,VWS V14.01,2013-12-28 08:17:00,
2013-12-28 03:22:00,29.3,21.4,30.24,SSE,156,0.0,2.0,72,0.00,,---,0.00,VWS V14.01,2013-12-28 08:22:00,
2013-12-28 03:27:00,29.4,21.5,30.24,SE,146,0.0,0.0,72,0.00,,---,0.00,VWS V14.01,2013-12-28 08:27:00,
2013-12-28 03:33:00,29.4,21.5,30.24,SE,146,0.0,2.0,72,0.00,,---,0.00,VWS V14.01,2013-12-28 08:33:00,
2013-12-28 03:38:00,29.4,21.5,30.24,SE,146,0.0,0.0,72,0.00,,---,0.00,VWS V14.01,2013-12-28 08:38:00,
2013-12-28 03:44:00,29.4,21.2,30.24,SE,146,0.0,0.0,71,0.00,,---,0.00,VWS V14.01,2013-12-28 08:44:00,
2013-12-28 03:49:00,29.5,21.3,30.24,SE,146,0.0,0.0,71,0.00,,---,0.00,VWS V14.01,2013-12-28 08:49:00,
2013-12-28 03:54:00,29.7,21.5,30.23,SE,146,0.0,0.0,71,0.00,,---,0.00,VWS V14.01,2013-12-28 08:54:00,
2013-12-28 03:59:00,29.7,21.5,30.23,SE,146,0.0,0.0,71,0.00,,---,0.00,VWS V14.01,2013-12-28 08:59:00,
2013-12-28 04:04:00,29.8,21.6,30.23,SE,136,0.0,0.0,71,0.00,,---,0.00,VWS V14.01,2013-12-28 09:04:00,
2013-12-28 04:10:00,29.8,21.6,30.23,ESE,117,0.0,0.0,71,0.00,,---,0.00,VWS V14.01,2013-12-28 09:10:00,
2013-12-28 04:16:00,29.8,21.6,30.23,ESE,108,0.0,1.0,71,0.00,,---,0.00,VWS V14.01,2013-12-28 09:16:00,
2013-12-28 04:21:00,29.8,21.6,30.23,ESE,115,0.0,0.0,71,0.00,,---,0.00,VWS V14.01,2013-12-28 09:21:00,
2013-12-28 04:27:00,29.8,21.6,30.23,ESE,115,0.0,0.0,71,0.00,,---,0.00,VWS V14.01,2013-12-28 09:27:00,
2013-12-28 04:33:00,29.8,21.6,30.22,ESE,107,0.0,0.0,71,0.00,,---,0.00,VWS V14.01,2013-12-28 09:33:00,
2013-12-28 04:38:00,29.8,21.6,30.22,ESE,108,0.0,0.0,71,0.00,,---,0.00,VWS V14.01,2013-12-28 09:38:00,
2013-12-28 04:43:00,29.7,21.5,30.22,ESE,107,0.0,1.0,71,0.00,,---,0.00,VWS V14.01,2013-12-28 09:43:00,
2013-12-28 04:48:00,29.7,21.5,30.22,ESE,107,0.0,0.0,71,0.00,,---,0.00,VWS V14.01,2013-12-28 09:48:00,
2013-12-28 04:53:00,29.7,21.5,30.22,ESE,107,0.0,0.0,71,0.00,,---,0.00,VWS V14.01,2013-12-28 09:53:00,
2013-12-28 04:58:00,29.7,21.5,30.22,ESE,107,0.0,0.0,71,0.00,,---,0.00,VWS V14.01,2013-12-28 09:58:00,
2013-12-28 05:03:00,29.5,21.3,30.21,ESE,109,0.0,1.0,71,0.00,,---,0.00,VWS V14.01,2013-12-28 10:03:00,
2013-12-28 05:08:00,29.5,21.3,30.21,SSE,154,0.0,0.0,71,0.00,,---,0.00,VWS V14.01,2013-12-28 10:08:00,
2013-12-28 05:13:00,29.5,21.3,30.21,ESE,103,0.0,0.0,71,0.00,,---,0.00,VWS V14.01,2013-12-28 10:13:00,
2013-12-28 05:18:00,29.5,21.3,30.21,ESE,111,0.0,0.0,71,0.00,,---,0.00,VWS V14.01,2013-12-28 10:18:00,
2013-12-28 05:23:00,29.4,21.2,30.21,ESE,109,0.0,0.0,71,0.00,,---,0.00,VWS V14.01,2013-12-28 10:23:00,
2013-12-28 05:28:00,29.4,21.2,30.20,ESE,109,0.0,0.0,71,0.00,,---,0.00,VWS V14.01,2013-12-28 10:28:00,
2013-12-28 05:34:00,29.3,21.1,30.20,ESE,109,0.0,0.0,71,0.00,,---,0.00,VWS V14.01,2013-12-28 10:34:00,
2013-12-28 05:39:00,29.3,21.1,30.20,ESE,109,0.0,0.0,71,0.00,,---,0.00,VWS V14.01,2013-12-28 10:39:00,
2013-12-28 05:44:00,29.1,20.9,30.20,ESE,109,0.0,0.0,71,0.00,,---,0.00,VWS V14.01,2013-12-28 10:44:00,
2013-12-28 05:49:00,29.0,21.1,30.19,ESE,109,0.0,0.0,72,0.00,,---,0.00,VWS V14.01,2013-12-28 10:49:00,
2013-12-28 05:54:00,29.0,21.1,30.19,SSE,149,0.0,0.0,72,0.00,,---,0.00,VWS V14.01,2013-12-28 10:54:00,
2013-12-28 05:59:00,28.8,20.9,30.19,East,89,0.0,0.0,72,0.00,,---,0.00,VWS V14.01,2013-12-28 10:59:00,
2013-12-28 06:04:00,28.8,20.6,30.19,East,89,0.0,0.0,71,0.00,,---,0.00,VWS V14.01,2013-12-28 11:04:00,
2013-12-28 06:06:00,28.8,20.6,30.19,East,89,0.0,0.0,71,0.00,,---,0.00,VWS V14.01,2013-12-28 11:06:00,
2013-12-28 06:11:00,28.8,20.6,30.19,East,89,0.0,0.0,71,0.00,,---,0.00,VWS V14.01,2013-12-28 11:11:00,
2013-12-28 06:16:00,28.8,20.6,30.19,East,93,0.0,0.0,71,0.00,,---,0.00,VWS V14.01,2013-12-28 11:16:00,
2013-12-28 06:22:00,29.0,20.8,30.19,East,94,0.0,0.0,71,0.00,,---,0.00,VWS V14.01,2013-12-28 11:22:00,
2013-12-28 06:27:00,29.0,20.8,30.19,ESE,122,0.0,1.0,71,0.00,,---,0.00,VWS V14.01,2013-12-28 11:27:00,
2013-12-28 06:32:00,29.1,20.9,30.19,ESE,117,0.0,0.0,71,0.00,,---,0.00,VWS V14.01,2013-12-28 11:32:00,
2013-12-28 06:37:00,29.1,20.9,30.19,ESE,117,0.0,0.0,71,0.00,,---,0.00,VWS V14.01,2013-12-28 11:37:00,
2013-12-28 06:42:00,29.1,20.9,30.19,ESE,117,0.0,0.0,71,0.00,,---,0.00,VWS V14.01,2013-12-28 11:42:00,
2013-12-28 06:47:00,29.1,20.9,30.19,ESE,104,0.0,1.0,71,0.00,,---,0.00,VWS V14.01,2013-12-28 11:47:00,
2013-12-28 06:52:00,29.3,21.1,30.19,ESE,110,0.0,0.0,71,0.00,,---,0.00,VWS V14.01,2013-12-28 11:52:00,
2013-12-28 06:57:00,29.3,21.1,30.19,ESE,107,1.0,1.0,71,0.00,,---,0.00,VWS V14.01,2013-12-28 11:57:00,
2013-12-28 07:02:00,29.3,21.1,30.19,SE,135,0.0,2.0,71,0.00,,---,0.00,VWS V14.01,2013-12-28 12:02:00,
2013-12-28 07:07:00,29.4,21.2,30.18,ESE,113,0.0,2.0,71,0.00,,---,0.00,VWS V14.01,2013-12-28 12:07:00,
2013-12-28 07:12:00,29.4,21.2,30.19,SSE,155,0.0,1.0,71,0.00,,---,0.00,VWS V14.01,2013-12-28 12:12:00,
2013-12-28 07:17:00,29.4,21.2,30.19,ESE,116,1.0,1.0,71,0.00,,---,0.00,VWS V14.01,2013-12-28 12:17:00,
2013-12-28 07:22:00,29.4,21.2,30.19,SE,138,2.0,2.0,71,0.00,,---,0.00,VWS V14.01,2013-12-28 12:22:00,
2013-12-28 07:27:00,29.4,21.2,30.19,SE,145,0.0,0.0,71,0.00,,---,0.00,VWS V14.01,2013-12-28 12:27:00,
2013-12-28 07:33:00,29.4,20.8,30.19,SSE,150,0.0,0.0,70,0.00,,---,0.00,VWS V14.01,2013-12-28 12:33:00,
2013-12-28 07:38:00,29.5,20.9,30.19,ESE,111,0.0,2.0,70,0.00,,---,0.00,VWS V14.01,2013-12-28 12:38:00,
2013-12-28 07:43:00,29.5,20.9,30.19,SE,132,2.0,4.0,70,0.00,,---,0.00,VWS V14.01,2013-12-28 12:43:00,
2013-12-28 07:48:00,29.7,20.8,30.18,SSE,154,1.0,3.0,69,0.00,,---,0.00,VWS V14.01,2013-12-28 12:48:00,
2013-12-28 07:53:00,30.0,21.1,30.18,SE,127,0.0,3.0,69,0.00,,---,0.00,VWS V14.01,2013-12-28 12:53:00,
2013-12-28 07:58:00,30.1,21.2,30.18,SSE,156,0.0,1.0,69,0.00,,---,0.00,VWS V14.01,2013-12-28 12:58:00,
2013-12-28 08:03:00,30.1,21.2,30.18,SE,139,0.0,2.0,69,0.00,,---,0.00,VWS V14.01,2013-12-28 13:03:00,
2013-12-28 08:08:00,30.3,21.0,30.17,SSE,167,3.0,3.0,68,0.00,,---,0.00,VWS V14.01,2013-12-28 13:08:00,
2013-12-28 08:13:00,30.6,21.3,30.18,SSE,165,1.0,3.0,68,0.00,,---,0.00,VWS V14.01,2013-12-28 13:13:00,
2013-12-28 08:18:00,30.7,21.1,30.18,SSE,160,4.0,4.0,67,0.00,,---,0.00,VWS V14.01,2013-12-28 13:18:00,
2013-12-28 08:23:00,31.2,21.2,30.18,SSE,160,2.0,4.0,66,0.00,,---,0.00,VWS V14.01,2013-12-28 13:23:00,
2013-12-28 08:28:00,31.5,21.1,30.18,SSE,165,2.0,3.0,65,0.00,,---,0.00,VWS V14.01,2013-12-28 13:28:00,
2013-12-28 08:33:00,32.1,21.7,30.18,SSE,161,0.0,1.0,65,0.00,,---,0.00,VWS V14.01,2013-12-28 13:33:00,
2013-12-28 08:38:00,32.5,21.3,30.17,SSE,161,0.0,4.0,63,0.00,,---,0.00,VWS V14.01,2013-12-28 13:38:00,
2013-12-28 08:43:00,33.1,21.5,30.18,South,171,0.0,3.0,62,0.00,,---,0.00,VWS V14.01,2013-12-28 13:43:00,
2013-12-28 08:48:00,33.5,21.5,30.17,SE,134,2.0,2.0,61,0.00,,---,0.00,VWS V14.01,2013-12-28 13:48:00,
2013-12-28 08:53:00,33.8,21.4,30.18,SSE,155,0.0,1.0,60,0.00,,---,0.00,VWS V14.01,2013-12-28 13:53:00,
2013-12-28 08:58:00,34.3,21.5,30.18,SE,135,0.0,0.0,59,0.00,,---,0.00,VWS V14.01,2013-12-28 13:58:00,
2013-12-28 09:04:00,35.0,21.7,30.18,South,175,0.0,3.0,58,0.00,,---,0.00,VWS V14.01,2013-12-28 14:04:00,
2013-12-28 09:09:00,35.6,21.9,30.18,South,176,2.0,3.0,57,0.00,,---,0.00,VWS V14.01,2013-12-28 14:09:00,
2013-12-28 09:14:00,36.6,21.5,30.18,SW,222,2.0,4.0,54,0.00,,---,0.00,VWS V14.01,2013-12-28 14:14:00,
2013-12-28 09:19:00,37.9,21.4,30.18,SE,144,0.0,5.0,51,0.00,,---,0.00,VWS V14.01,2013-12-28 14:19:00,
2013-12-28 09:25:00,38.9,20.9,30.18,WSW,250,5.0,5.0,48,0.00,,---,0.00,VWS V14.01,2013-12-28 14:25:00,
2013-12-28 09:30:00,39.5,21.0,30.18,SE,142,1.0,3.0,47,0.00,,---,0.00,VWS V14.01,2013-12-28 14:30:00,
2013-12-28 09:36:00,39.9,21.3,30.18,SW,215,1.0,4.0,47,0.00,,---,0.00,VWS V14.01,2013-12-28 14:36:00,
2013-12-28 09:41:00,40.2,21.1,30.18,SSW,196,4.0,5.0,46,0.00,,---,0.00,VWS V14.01,2013-12-28 14:41:00,
2013-12-28 09:47:00,40.5,21.4,30.18,SW,234,2.0,2.0,46,0.00,,---,0.00,VWS V14.01,2013-12-28 14:47:00,
2013-12-28 09:53:00,40.8,21.1,30.18,South,171,0.0,6.0,45,0.00,,---,0.00,VWS V14.01,2013-12-28 14:53:00,
2013-12-28 09:58:00,40.9,21.2,30.17,West,273,3.0,9.0,45,0.00,,---,0.00,VWS V14.01,2013-12-28 14:58:00,
2013-12-28 10:04:00,41.2,21.0,30.17,SW,226,5.0,6.0,44,0.00,,---,0.00,VWS V14.01,2013-12-28 15:04:00,
2013-12-28 10:09:00,41.3,21.6,30.17,SW,222,4.0,4.0,45,0.00,,---,0.00,VWS V14.01,2013-12-28 15:09:00,
2013-12-28 10:14:00,41.6,21.3,30.17,SW,221,1.0,2.0,44,0.00,,---,0.00,VWS V14.01,2013-12-28 15:14:00,
2013-12-28 10:20:00,41.8,21.0,30.17,West,271,2.0,9.0,43,0.00,,---,0.00,VWS V14.01,2013-12-28 15:20:00,
2013-12-28 10:25:00,42.1,21.8,30.17,South,174,3.0,3.0,44,0.00,,---,0.00,VWS V14.01,2013-12-28 15:25:00,
2013-12-28 10:30:00,42.2,20.8,30.17,SW,228,5.0,9.0,42,0.00,,---,0.00,VWS V14.01,2013-12-28 15:30:00,
2013-12-28 10:35:00,42.3,20.3,30.17,SW,230,2.0,12.0,41,0.00,,---,0.00,VWS V14.01,2013-12-28 15:35:00,
2013-12-28 10:40:00,42.3,20.3,30.17,SSE,150,2.0,6.0,41,0.00,,---,0.00,VWS V14.01,2013-12-28 15:40:00,
2013-12-28 10:45:00,42.3,20.3,30.17,WSW,238,2.0,9.0,41,0.00,,---,0.00,VWS V14.01,2013-12-28 15:45:00,
2013-12-28 10:50:00,42.3,20.3,30.16,SW,214,6.0,6.0,41,0.00,,---,0.00,VWS V14.01,2013-12-28 15:50:00,
2013-12-28 10:55:00,42.3,20.3,30.16,SW,221,2.0,7.0,41,0.00,,---,0.00,VWS V14.01,2013-12-28 15:55:00,
2013-12-28 11:00:00,42.5,20.5,30.16,SW,219,6.0,10.0,41,0.00,,---,0.00,VWS V14.01,2013-12-28 16:00:00,
2013-12-28 11:05:00,42.6,20.6,30.15,SSW,196,6.0,9.0,41,0.00,,---,0.00,VWS V14.01,2013-12-28 16:05:00,
2013-12-28 11:10:00,42.6,20.6,30.15,SW,215,6.0,11.0,41,0.00,,---,0.00,VWS V14.01,2013-12-28 16:10:00,
2013-12-28 11:16:00,42.8,20.8,30.15,SSW,200,1.0,6.0,41,0.00,,---,0.00,VWS V14.01,2013-12-28 16:16:00,
2013-12-28 11:22:00,42.9,20.8,30.15,WSW,239,5.0,6.0,41,0.00,,---,0.00,VWS V14.01,2013-12-28 16:22:00,
2013-12-28 11:28:00,43.1,21.0,30.14,SW,225,2.0,7.0,41,0.00,,---,0.00,VWS V14.01,2013-12-28 16:28:00,
2013-12-28 11:34:00,43.3,21.2,30.13,SW,221,3.0,8.0,41,0.00,,---,0.00,VWS V14.01,2013-12-28 16:34:00,
2013-12-28 11:39:00,43.3,20.6,30.13,South,172,8.0,8.0,40,0.00,,---,0.00,VWS V14.01,2013-12-28 16:39:00,
2013-12-28 11:44:00,43.5,21.4,30.13,SW,217,5.0,6.0,41,0.00,,---,0.00,VWS V14.01,2013-12-28 16:44:00,
2013-12-28 11:49:00,43.6,21.5,30.13,SE,143,4.0,4.0,41,0.00,,---,0.00,VWS V14.01,2013-12-28 16:49:00,
2013-12-28 11:54:00,43.6,20.9,30.12,WSW,257,5.0,5.0,40,0.00,,---,0.00,VWS V14.01,2013-12-28 16:54:00,
2013-12-28 11:59:00,43.9,21.2,30.11,SW,232,2.0,7.0,40,0.00,,---,0.00,VWS V14.01,2013-12-28 16:59:00,
2013-12-28 12:04:00,44.3,21.5,30.11,WSW,241,6.0,9.0,40,0.00,,---,0.00,VWS V14.01,2013-12-28 17:04:00,
2013-12-28 12:09:00,44.2,21.4,30.11,WSW,253,3.0,5.0,40,0.00,,---,0.00,VWS V14.01,2013-12-28 17:09:00,
2013-12-28 12:15:00,44.9,22.1,30.10,SW,236,2.0,7.0,40,0.00,,---,0.00,VWS V14.01,2013-12-28 17:15:00,
2013-12-28 12:20:00,45.4,21.3,30.10,SSW,212,5.0,9.0,38,0.00,,---,0.00,VWS V14.01,2013-12-28 17:20:00,
2013-12-28 12:26:00,45.7,22.2,30.10,WNW,292,1.0,5.0,39,0.00,,---,0.00,VWS V14.01,2013-12-28 17:26:00,
2013-12-28 12:31:00,46.0,21.8,30.09,WSW,245,3.0,7.0,38,0.00,,---,0.00,VWS V14.01,2013-12-28 17:31:00,
2013-12-28 12:36:00,46.1,22.5,30.09,West,274,2.0,3.0,39,0.00,,---,0.00,VWS V14.01,2013-12-28 17:36:00,
2013-12-28 12:41:00,46.1,21.9,30.08,SW,236,1.0,7.0,38,0.00,,---,0.00,VWS V14.01,2013-12-28 17:41:00,
2013-12-28 12:46:00,46.1,21.9,30.08,SW,224,3.0,7.0,38,0.00,,---,0.00,VWS V14.01,2013-12-28 17:46:00,
2013-12-28 12:51:00,46.1,21.9,30.08,West,264,3.0,9.0,38,0.00,,---,0.00,VWS V14.01,2013-12-28 17:51:00,
2013-12-28 12:56:00,46.4,22.8,30.08,SW,219,6.0,6.0,39,0.00,,---,0.00,VWS V14.01,2013-12-28 17:56:00,
2013-12-28 13:01:00,46.5,22.9,30.08,WSW,253,1.0,3.0,39,0.00,,---,0.00,VWS V14.01,2013-12-28 18:01:00,
2013-12-28 13:06:00,46.8,22.5,30.07,SSW,199,3.0,3.0,38,0.00,,---,0.00,VWS V14.01,2013-12-28 18:06:00,
2013-12-28 13:12:00,47.0,22.1,30.07,WSW,257,2.0,4.0,37,0.00,,---,0.00,VWS V14.01,2013-12-28 18:12:00,
2013-12-28 13:17:00,47.3,22.4,30.07,SW,221,4.0,5.0,37,0.00,,---,0.00,VWS V14.01,2013-12-28 18:17:00,
2013-12-28 13:23:00,47.3,22.4,30.07,WSW,239,2.0,6.0,37,0.00,,---,0.00,VWS V14.01,2013-12-28 18:23:00,
2013-12-28 13:28:00,46.8,22.5,30.08,West,266,4.0,7.0,38,0.00,,---,0.00,VWS V14.01,2013-12-28 18:28:00,
2013-12-28 13:33:00,46.8,22.5,30.07,WSW,240,1.0,4.0,38,0.00,,---,0.00,VWS V14.01,2013-12-28 18:33:00,
2013-12-28 13:38:00,47.0,22.1,30.08,WSW,245,2.0,7.0,37,0.00,,---,0.00,VWS V14.01,2013-12-28 18:38:00,
2013-12-28 13:44:00,47.1,22.2,30.07,WSW,252,0.0,6.0,37,0.00,,---,0.00,VWS V14.01,2013-12-28 18:44:00,
2013-12-28 13:50:00,47.6,23.3,30.07,WSW,240,1.0,5.0,38,0.00,,---,0.00,VWS V14.01,2013-12-28 18:50:00,
2013-12-28 13:55:00,47.9,23.5,30.07,South,179,0.0,0.0,38,0.00,,---,0.00,VWS V14.01,2013-12-28 18:55:00,
2013-12-28 14:00:00,47.7,22.7,30.07,SSW,206,4.0,6.0,37,0.00,,---,0.00,VWS V14.01,2013-12-28 19:00:00,
2013-12-28 14:06:00,47.7,22.7,30.07,WSW,257,6.0,6.0,37,0.00,,---,0.00,VWS V14.01,2013-12-28 19:06:00,
2013-12-28 14:11:00,47.7,23.4,30.07,SSE,167,4.0,4.0,38,0.00,,---,0.00,VWS V14.01,2013-12-28 19:11:00,
2013-12-28 14:16:00,47.7,22.7,30.07,SW,222,2.0,6.0,37,0.00,,---,0.00,VWS V14.01,2013-12-28 19:16:00,
2013-12-28 14:21:00,47.7,22.7,30.06,SW,234,2.0,4.0,37,0.00,,---,0.00,VWS V14.01,2013-12-28 19:21:00,
2013-12-28 14:26:00,48.0,23.0,30.06,WSW,253,3.0,4.0,37,0.00,,---,0.00,VWS V14.01,2013-12-28 19:26:00,
2013-12-28 14:32:00,48.2,23.2,30.07,West,263,0.0,4.0,37,0.00,,---,0.00,VWS V14.01,2013-12-28 19:32:00,
2013-12-28 14:37:00,48.5,22.8,30.06,West,263,1.0,3.0,36,0.00,,---,0.00,VWS V14.01,2013-12-28 19:37:00,
2013-12-28 14:42:00,48.8,23.0,30.06,SW,234,1.0,4.0,36,0.00,,---,0.00,VWS V14.01,2013-12-28 19:42:00,
2013-12-28 14:47:00,49.5,23.0,30.06,West,275,1.0,3.0,35,0.00,,---,0.00,VWS V14.01,2013-12-28 19:47:00,
2013-12-28 14:52:00,50.2,23.6,30.06,West,281,3.0,4.0,35,0.00,,---,0.00,VWS V14.01,2013-12-28 19:52:00,
2013-12-28 14:57:00,50.4,23.8,30.06,SW,218,0.0,2.0,35,0.00,,---,0.00,VWS V14.01,2013-12-28 19:57:00,
2013-12-28 15:02:00,50.1,22.8,30.06,SW,221,0.0,3.0,34,0.00,,---,0.00,VWS V14.01,2013-12-28 20:02:00,
2013-12-28 15:07:00,49.8,23.3,30.06,SW,233,1.0,3.0,35,0.00,,---,0.00,VWS V14.01,2013-12-28 20:07:00,
2013-12-28 15:12:00,49.6,23.1,30.06,WSW,242,4.0,4.0,35,0.00,,---,0.00,VWS V14.01,2013-12-28 20:12:00,
2013-12-28 15:17:00,49.5,23.0,30.07,SW,226,0.0,0.0,35,0.00,,---,0.00,VWS V14.01,2013-12-28 20:17:00,
2013-12-28 15:22:00,49.2,22.7,30.07,SW,220,0.0,1.0,35,0.00,,---,0.00,VWS V14.01,2013-12-28 20:22:00,
2013-12-28 15:27:00,49.4,23.6,30.07,SW,220,0.0,0.0,36,0.00,,---,0.00,VWS V14.01,2013-12-28 20:27:00,
2013-12-28 15:32:00,49.4,23.6,30.07,SW,220,0.0,0.0,36,0.00,,---,0.00,VWS V14.01,2013-12-28 20:32:00,
2013-12-28 15:37:00,49.4,22.9,30.07,SW,220,0.0,0.0,35,0.00,,---,0.00,VWS V14.01,2013-12-28 20:37:00,
2013-12-28 15:42:00,49.2,23.4,30.07,SW,223,0.0,2.0,36,0.00,,---,0.00,VWS V14.01,2013-12-28 20:42:00,
2013-12-28 15:47:00,49.2,23.4,30.07,WSW,250,0.0,1.0,36,0.00,,---,0.00,VWS V14.01,2013-12-28 20:47:00,
2013-12-28 15:52:00,49.5,23.7,30.07,WSW,250,0.0,0.0,36,0.00,,---,0.00,VWS V14.01,2013-12-28 20:52:00,
2013-12-28 15:57:00,49.8,23.9,30.07,WSW,250,0.0,0.0,36,0.00,,---,0.00,VWS V14.01,2013-12-28 20:57:00,
2013-12-28 16:03:00,50.1,24.2,30.06,WSW,250,0.0,0.0,36,0.00,,---,0.00,VWS V14.01,2013-12-28 21:03:00,
2013-12-28 16:08:00,50.1,24.2,30.06,WSW,250,0.0,0.0,36,0.00,,---,0.00,VWS V14.01,2013-12-28 21:08:00,
2013-12-28 16:13:00,50.1,24.2,30.06,WSW,250,0.0,0.0,36,0.00,,---,0.00,VWS V14.01,2013-12-28 21:13:00,
2013-12-28 16:19:00,49.6,23.8,30.06,WSW,250,0.0,0.0,36,0.00,,---,0.00,VWS V14.01,2013-12-28 21:19:00,
2013-12-28 16:24:00,49.2,23.4,30.06,WSW,250,0.0,0.0,36,0.00,,---,0.00,VWS V14.01,2013-12-28 21:24:00,
2013-12-28 16:29:00,48.8,23.7,30.07,WSW,250,0.0,0.0,37,0.00,,---,0.00,VWS V14.01,2013-12-28 21:29:00,
2013-12-28 16:34:00,48.2,23.2,30.07,WSW,250,0.0,0.0,37,0.00,,---,0.00,VWS V14.01,2013-12-28 21:34:00,
2013-12-28 16:39:00,47.6,23.3,30.07,WSW,250,0.0,0.0,38,0.00,,---,0.00,VWS V14.01,2013-12-28 21:39:00,
2013-12-28 16:44:00,47.3,23.0,30.08,WSW,250,0.0,0.0,38,0.00,,---,0.00,VWS V14.01,2013-12-28 21:44:00,
2013-12-28 16:50:00,46.8,23.2,30.08,WSW,250,0.0,0.0,39,0.00,,---,0.00,VWS V14.01,2013-12-28 21:50:00,
2013-12-28 16:55:00,46.5,22.9,30.08,WSW,250,0.0,0.0,39,0.00,,---,0.00,VWS V14.01,2013-12-28 21:55:00,
2013-12-28 17:00:00,46.2,23.2,30.08,WSW,250,0.0,0.0,40,0.00,,---,0.00,VWS V14.01,2013-12-28 22:00:00,
2013-12-28 17:05:00,46.0,23.0,30.08,WSW,250,0.0,0.0,40,0.00,,---,0.00,VWS V14.01,2013-12-28 22:05:00,
2013-12-28 17:10:00,45.7,23.4,30.08,WSW,250,0.0,0.0,41,0.00,,---,0.00,VWS V14.01,2013-12-28 22:10:00,
2013-12-28 17:15:00,45.5,23.2,30.08,WSW,250,0.0,0.0,41,0.00,,---,0.00,VWS V14.01,2013-12-28 22:15:00,
2013-12-28 17:21:00,45.2,23.5,30.08,WSW,250,0.0,0.0,42,0.00,,---,0.00,VWS V14.01,2013-12-28 22:21:00,
2013-12-28 17:27:00,45.1,23.4,30.08,WSW,250,0.0,0.0,42,0.00,,---,0.00,VWS V14.01,2013-12-28 22:27:00,
2013-12-28 17:32:00,44.9,23.8,30.09,WSW,250,0.0,1.0,43,0.00,,---,0.00,VWS V14.01,2013-12-28 22:32:00,
2013-12-28 17:37:00,44.6,23.5,30.09,WSW,250,0.0,0.0,43,0.00,,---,0.00,VWS V14.01,2013-12-28 22:37:00,
2013-12-28 17:42:00,44.3,23.8,30.09,WSW,250,0.0,0.0,44,0.00,,---,0.00,VWS V14.01,2013-12-28 22:42:00,
2013-12-28 17:48:00,44.1,23.6,30.10,WSW,250,0.0,0.0,44,0.00,,---,0.00,VWS V14.01,2013-12-28 22:48:00,
2013-12-28 17:54:00,43.8,23.9,30.10,WSW,250,0.0,0.0,45,0.00,,---,0.00,VWS V14.01,2013-12-28 22:54:00,
2013-12-28 18:00:00,43.3,23.9,30.10,WSW,250,0.0,0.0,46,0.00,,---,0.00,VWS V14.01,2013-12-28 23:00:00,
2013-12-28 18:05:00,43.1,23.7,30.10,WSW,250,0.0,0.0,46,0.00,,---,0.00,VWS V14.01,2013-12-28 23:05:00,
2013-12-28 18:10:00,42.9,24.1,30.10,SW,229,0.0,1.0,47,0.00,,---,0.00,VWS V14.01,2013-12-28 23:10:00,
2013-12-28 18:16:00,42.8,24.0,30.11,SW,225,1.0,1.0,47,0.00,,---,0.00,VWS V14.01,2013-12-28 23:16:00,
2013-12-28 18:21:00,42.9,24.1,30.11,SW,225,0.0,0.0,47,0.00,,---,0.00,VWS V14.01,2013-12-28 23:21:00,
2013-12-28 18:27:00,42.9,24.1,30.11,SSE,167,0.0,1.0,47,0.00,,---,0.00,VWS V14.01,2013-12-28 23:27:00,
2013-12-28 18:33:00,43.1,24.3,30.10,SSE,166,0.0,0.0,47,0.00,,---,0.00,VWS V14.01,2013-12-28 23:33:00,
2013-12-28 18:38:00,43.1,24.3,30.10,SSE,166,0.0,0.0,47,0.00,,---,0.00,VWS V14.01,2013-12-28 23:38:00,
2013-12-28 18:43:00,43.2,24.4,30.10,South,178,0.0,0.0,47,0.00,,---,0.00,VWS V14.01,2013-12-28 23:43:00,
2013-12-28 18:48:00,43.2,24.4,30.11,South,177,0.0,0.0,47,0.00,,---,0.00,VWS V14.01,2013-12-28 23:48:00,
2013-12-28 18:53:00,43.2,24.4,30.11,South,177,0.0,2.0,47,0.00,,---,0.00,VWS V14.01,2013-12-28 23:53:00,
2013-12-28 18:59:00,43.2,24.4,30.11,South,177,0.0,0.0,47,0.00,,---,0.00,VWS V14.01,2013-12-28 23:59:00,
2013-12-28 19:04:00,43.1,24.3,30.11,South,176,0.0,1.0,47,0.00,,---,0.00,VWS V14.01,2013-12-29 00:04:00,
2013-12-28 19:10:00,42.9,24.1,30.12,South,177,0.0,0.0,47,0.00,,---,0.00,VWS V14.01,2013-12-29 00:10:00,
2013-12-28 19:15:00,42.9,24.1,30.11,South,175,0.0,2.0,47,0.00,,---,0.00,VWS V14.01,2013-12-29 00:15:00,
2013-12-28 19:21:00,42.9,24.6,30.11,South,175,0.0,0.0,48,0.00,,---,0.00,VWS V14.01,2013-12-29 00:21:00,
2013-12-28 19:26:00,42.9,24.6,30.11,South,175,0.0,0.0,48,0.00,,---,0.00,VWS V14.01,2013-12-29 00:26:00,
2013-12-28 19:31:00,42.9,24.1,30.11,South,177,0.0,0.0,47,0.00,,---,0.00,VWS V14.01,2013-12-29 00:31:00,
2013-12-28 19:36:00,42.9,24.6,30.11,South,177,0.0,0.0,48,0.00,,---,0.00,VWS V14.01,2013-12-29 00:36:00,
2013-12-28 19:42:00,42.9,24.1,30.11,South,177,0.0,0.0,47,0.00,,---,0.00,VWS V14.01,2013-12-29 00:42:00,
2013-12-28 19:47:00,43.1,24.3,30.11,South,177,0.0,0.0,47,0.00,,---,0.00,VWS V14.01,2013-12-29 00:47:00,
2013-12-28 19:52:00,43.2,24.4,30.10,South,177,0.0,0.0,47,0.00,,---,0.00,VWS V14.01,2013-12-29 00:52:00,
2013-12-28 19:58:00,43.2,24.4,30.10,SW,221,1.0,2.0,47,0.00,,---,0.00,VWS V14.01,2013-12-29 00:58:00,
2013-12-28 20:03:00,43.5,24.6,30.10,SW,221,0.0,0.0,47,0.00,,---,0.00,VWS V14.01,2013-12-29 01:03:00,
2013-12-28 20:08:00,43.5,24.6,30.09,SW,221,0.0,0.0,47,0.00,,---,0.00,VWS V14.01,2013-12-29 01:08:00,
2013-12-28 20:13:00,43.5,24.6,30.10,SW,221,0.0,0.0,47,0.00,,---,0.00,VWS V14.01,2013-12-29 01:13:00,
2013-12-28 20:18:00,43.5,24.6,30.10,SW,221,0.0,0.0,47,0.00,,---,0.00,VWS V14.01,2013-12-29 01:18:00,
2013-12-28 20:23:00,43.3,24.9,30.10,SW,221,0.0,0.0,48,0.00,,---,0.00,VWS V14.01,2013-12-29 01:23:00,
2013-12-28 20:28:00,43.3,24.4,30.09,SW,221,0.0,0.0,47,0.00,,---,0.00,VWS V14.01,2013-12-29 01:28:00,
2013-12-28 20:33:00,43.3,24.4,30.10,SW,221,0.0,0.0,47,0.00,,---,0.00,VWS V14.01,2013-12-29 01:33:00,
2013-12-28 20:39:00,43.5,24.6,30.10,South,171,0.0,0.0,47,0.00,,---,0.00,VWS V14.01,2013-12-29 01:39:00,
2013-12-28 20:45:00,43.6,24.7,30.10,South,171,0.0,1.0,47,0.00,,---,0.00,VWS V14.01,2013-12-29 01:45:00,
2013-12-28 20:50:00,43.8,24.9,30.10,South,171,0.0,0.0,47,0.00,,---,0.00,VWS V14.01,2013-12-29 01:50:00,
2013-12-28 20:55:00,43.8,24.9,30.10,South,171,0.0,0.0,47,0.00,,---,0.00,VWS V14.01,2013-12-29 01:55:00,
2013-12-28 21:02:00,43.8,24.9,30.10,South,171,1.0,1.0,47,0.00,,---,0.00,VWS V14.01,2013-12-29 02:02:00,
2013-12-28 21:07:00,43.1,24.8,30.10,SSE,167,0.0,0.0,48,0.00,,---,0.00,VWS V14.01,2013-12-29 02:07:00,
2013-12-28 21:12:00,42.8,24.5,30.10,SSE,167,0.0,0.0,48,0.00,,---,0.00,VWS V14.01,2013-12-29 02:12:00,
2013-12-28 21:17:00,42.6,24.8,30.10,SSE,167,0.0,0.0,49,0.00,,---,0.00,VWS V14.01,2013-12-29 02:17:00,
2013-12-28 21:22:00,42.3,24.5,30.10,SSE,167,0.0,0.0,49,0.00,,---,0.00,VWS V14.01,2013-12-29 02:22:00,
2013-12-28 21:27:00,42.2,24.4,30.10,SSE,167,0.0,0.0,49,0.00,,---,0.00,VWS V14.01,2013-12-29 02:27:00,
2013-12-28 21:32:00,42.1,24.8,30.09,SSE,167,0.0,0.0,50,0.00,,---,0.00,VWS V14.01,2013-12-29 02:32:00,
2013-12-28 21:37:00,41.9,24.6,30.09,ENE,61,0.0,0.0,50,0.00,,---,0.00,VWS V14.01,2013-12-29 02:37:00,
2013-12-28 21:42:00,41.9,24.6,30.09,ENE,61,0.0,0.0,50,0.00,,---,0.00,VWS V14.01,2013-12-29 02:42:00,
2013-12-28 21:48:00,41.8,25.5,30.10,ENE,61,0.0,0.0,52,0.00,,---,0.00,VWS V14.01,2013-12-29 02:48:00,
2013-12-28 21:53:00,41.3,24.5,30.09,ENE,61,0.0,0.0,51,0.00,,---,0.00,VWS V14.01,2013-12-29 02:53:00,
2013-12-28 21:58:00,41.2,24.9,30.09,ENE,61,0.0,0.0,52,0.00,,---,0.00,VWS V14.01,2013-12-29 02:58:00,
2013-12-28 22:03:00,41.2,24.9,30.09,ESE,123,0.0,0.0,52,0.00,,---,0.00,VWS V14.01,2013-12-29 03:03:00,
2013-12-28 22:08:00,41.1,24.8,30.09,ESE,123,0.0,0.0,52,0.00,,---,0.00,VWS V14.01,2013-12-29 03:08:00,
2013-12-28 22:13:00,40.8,25.0,30.09,ESE,123,0.0,0.0,53,0.00,,---,0.00,VWS V14.01,2013-12-29 03:13:00,
2013-12-28 22:18:00,40.6,25.3,30.09,ESE,123,0.0,0.0,54,0.00,,---,0.00,VWS V14.01,2013-12-29 03:18:00,
2013-12-28 22:23:00,40.2,24.9,30.09,ESE,123,0.0,0.0,54,0.00,,---,0.00,VWS V14.01,2013-12-29 03:23:00,
2013-12-28 22:28:00,40.2,24.9,30.08,ESE,103,0.0,0.0,54,0.00,,---,0.00,VWS V14.01,2013-12-29 03:28:00,
2013-12-28 22:34:00,39.1,25.2,30.08,ESE,105,0.0,0.0,57,0.00,,---,0.00,VWS V14.01,2013-12-29 03:34:00,
2013-12-28 22:40:00,38.5,24.6,30.08,ESE,105,0.0,0.0,57,0.00,,---,0.00,VWS V14.01,2013-12-29 03:40:00,
2013-12-28 22:46:00,38.0,25.0,30.08,ESE,105,0.0,0.0,59,0.00,,---,0.00,VWS V14.01,2013-12-29 03:46:00,
2013-12-28 22:51:00,37.2,24.6,30.08,ESE,105,0.0,0.0,60,0.00,,---,0.00,VWS V14.01,2013-12-29 03:51:00,
2013-12-28 22:57:00,36.9,24.7,30.08,ESE,105,0.0,0.0,61,0.00,,---,0.00,VWS V14.01,2013-12-29 03:57:00,
2013-12-28 23:02:00,37.0,24.8,30.07,ESE,105,0.0,0.0,61,0.00,,---,0.00,VWS V14.01,2013-12-29 04:02:00,
2013-12-28 23:07:00,37.2,25.0,30.08,ESE,105,0.0,0.0,61,0.00,,---,0.00,VWS V14.01,2013-12-29 04:07:00,
2013-12-28 23:12:00,37.3,24.7,30.07,ESE,105,0.0,0.0,60,0.00,,---,0.00,VWS V14.01,2013-12-29 04:12:00,
2013-12-28 23:18:00,37.3,25.1,30.07,ESE,105,0.0,0.0,61,0.00,,---,0.00,VWS V14.01,2013-12-29 04:18:00,
2013-12-28 23:24:00,37.2,25.0,30.07,ESE,105,0.0,0.0,61,0.00,,---,0.00,VWS V14.01,2013-12-29 04:24:00,
2013-12-28 23:29:00,37.5,25.3,30.07,ESE,105,0.0,0.0,61,0.00,,---,0.00,VWS V14.01,2013-12-29 04:29:00,
2013-12-28 23:34:00,37.6,25.4,30.07,ESE,105,0.0,0.0,61,0.00,,---,0.00,VWS V14.01,2013-12-29 04:34:00,
2013-12-28 23:40:00,38.2,25.5,30.07,SE,140,0.0,0.0,60,0.00,,---,0.00,VWS V14.01,2013-12-29 04:40:00,
2013-12-28 23:45:00,38.6,25.5,30.07,South,182,0.0,2.0,59,0.00,,---,0.00,VWS V14.01,2013-12-29 04:45:00,
2013-12-28 23:50:00,39.2,25.7,30.06,South,181,0.0,0.0,58,0.00,,---,0.00,VWS V14.01,2013-12-29 04:50:00,
2013-12-28 23:55:00,39.6,25.2,30.06,WSW,256,0.0,2.0,56,0.00,,---,0.00,VWS V14.01,2013-12-29 04:55:00,